Weather Roundup
Issued by NWS

Home | Current Version | Previous Version | Text Only | Print | Product List | Glossary On
Versions: 1 2 3 4 5 6 7 8 9 10 11 12 13 14 15 16 17 18 19 20 21 22 23 24 25 26 27 28 29 30 31 32 33 34 35 36 37 38 39 40 41 42 43 44 45 46 47 48 49 50
000
NZUS93 KARX 310459
HRRWXR

CURRENT HOURLY OBSERVATIONS ACROSS
MUCH OF THE UPPER MISSISSIPPI VALLEY
NATIONAL WEATHER SERVICE LA CROSSE WI
1200 AM CDT WED AUG 31 2016


...SOUTHEAST MINNESOTA...


CITY           SKY/WX    TMP DP  RH WIND       PRES   REMARKS
ROCHESTER      CLEAR     61  58  90 NW7       30.18S
ROCHESTER/MAYO FAIR      64  58  81 CALM      30.18R
WINONA         CLEAR     61  59  94 NW5       30.15S
AUSTIN         CLOUDY    61  57  88 CALM      30.17S
ALBERT LEA     CLOUDY    61  57  88 CALM      30.18S
DODGE CENTER   CLEAR     57  55  94 N5        30.18S
PRESTON        PTCLDY    62  56  81 N3        30.18S
OWATONNA       CLEAR     57  55  94 CALM      30.18S
FARIBAULT      CLEAR     57  55  94 CALM      30.18S
$$

...ELSEWHERE IN MINNESOTA...


CITY           SKY/WX    TMP DP  RH WIND       PRES   REMARKS
MINNEAPOLIS    CLEAR     64  57  78 NW3       30.17R
INTNL FALLS    PTCLDY    44  43  96 CALM      30.20R
DULUTH         CLEAR     58  51  78 NW7       30.18S
RED WING       CLEAR     61  57  88 CALM      30.15S
REDWOOD FALLS  CLEAR     65  58  78 CALM      30.18F
MANKATO        NOT AVBL
WORTHINGTON    CLEAR     60  58  92 CALM      30.21S
FAIRMONT       CLOUDY    61  59  93 N5        30.19S
$$

...SOUTHWEST WISCONSIN...


CITY           SKY/WX    TMP DP  RH WIND       PRES   REMARKS
LA CROSSE      CLOUDY    66  63  90 N6        30.14R
PRAIRIE DU CHI PTCLDY    68  65  91 CALM      30.12R
BOSCOBEL       PTCLDY    68  65  90 CALM      30.12R
LONE ROCK      NOT AVBL
PLATTEVILLE    CLEAR     68  68 100 N6        30.12R
FORT MC COY    CLOUDY    59  59  99 CALM      30.15R
MAUSTON-NEW LI CLOUDY    65  63  93 NW5       30.12S
VIROQUA        FAIR      63  61  92 N5        30.15S
WIS DELLS      NOT AVBL
$$

...ELSEWHERE IN WISCONSIN...


CITY           SKY/WX    TMP DP  RH WIND       PRES   REMARKS
MILWAUKEE      MOCLDY    73  68  84 W6        30.05S
MADISON        CLOUDY    69  65  86 N6        30.09R
GREEN BAY      MOCLDY    68  65  90 NE15G22   30.10R
EAU CLAIRE     NOT AVBL
BLACK RVR FLS  FAIR      57  57 100 CALM      30.14R
MEDFORD        CLEAR     53  53 100 CALM      30.15S
WAUSAU         CLEAR     61  49  64 N3        30.13S
WIS RAPIDS     CLEAR     64  57  78 N8        30.15R
MARSHFIELD     CLEAR     63  52  67 NE6       30.14S
RICE LAKE      CLEAR     57  52  84 N3        30.18R
$$

...NORTHEAST IOWA...


CITY           SKY/WX    TMP DP  RH WIND       PRES   REMARKS
WATERLOO       CLEAR     63  60  90 N6        30.14R
DUBUQUE        CLEAR     69  66  90 N8        30.12R
DECORAH        CLEAR     64  63  94 N6        30.15R
MASON CITY     MOCLDY    60  58  92 NW5       30.19S
CHARLES CITY   CLOUDY    61  61 100 N6        30.17S
OELWEIN        CLEAR     64  63  94 CALM      30.16R
$$

...ELSEWHERE IN IOWA...


CITY           SKY/WX    TMP DP  RH WIND       PRES   REMARKS
DES MOINES     CLOUDY    75  69  81 N6        30.14S
IOWA CITY      CLOUDY    74  70  87 NW8       30.11S
FORT DODGE     PTCLDY    64  61  88 N3        30.18S
MARSHALLTOWN   CLEAR     65  65 100 N7        30.15R
CEDAR RAPIDS   CLOUDY    69  69 100 N5        30.11S
$$

...NORTHERN ILLINOIS...


CITY           SKY/WX    TMP DP  RH WIND       PRES   REMARKS
CHICAGO-OHARE  CLOUDY    72  67  84 NW6       30.06S
CHICAGO-MIDWAY CLOUDY    76  67  73 NW7       30.05F
MOLINE         CLOUDY    73  70  90 CALM      30.08S
ROCKFORD       CLOUDY    70  68  93 W3        30.09S
PEORIA         MOCLDY    73  73 100 CALM      30.07F
$$

NOTE: "FAIR" INDICATES FEW OR NO CLOUDS BELOW 12,000 FEET WITH NO
SIGNIFICANT WEATHER AND/OR OBSTRUCTIONS TO VISIBILITY. WIND
SPEEDS ARE IN MILES-PER-HOUR.




USA.gov is the U.S. government's official web portal to all federal, state and local government web resources and services.